Location: DARK SKY Beskydy - Park tmavé oblohy, www.darkskybeskydy.cz
(49.4926°N, 18.5016°E)
Time: 00:07:30
(UTC+02:00)

TIGRISAT - Pass Details

Date: 06 August 2024
Orbit: 591 x 668 km, 97.7° (Epoch: 14 September)

Event Time Altitude Azimuth Distance (km) Brightness Sun altitude
Rises 03:42:19 0° 144° (SE) 2,950 ? -14.0°
Reaches altitude 10° 03:44:38 10° 136° (SE) 2,032 ? -13.7°
Maximum altitude 03:48:44 39° 68° (ENE) 960 ? -13.2°
Drops below altitude 10° 03:52:46 10° 1° (N) 2,000 ? -12.8°
Sets 03:55:03 0° 353° (N) 2,898 ? -12.5°
